Location: Écuvilly
(49.6505°N, 2.9206°E)
Time: 16:13:22
(UTC+00:00)

CZ-2D R/B - Pass Details

Date: 17 November 2025
Orbit: 403 x 411 km, 97.4° (Epoch: 12 December)

Event Time Altitude Azimuth Distance (km) Brightness Sun altitude
Rises 17:09:24 0° 162° (SSE) 2,331 6.5 -10.7°
Reaches altitude 10° 17:11:23 10° 161° (SSE) 1,472 5.5 -11.0°
Maximum altitude 17:14:31 77° 75° (ENE) 425 2.6 -11.5°
Drops below altitude 10° 17:17:40 10° 350° (N) 1,479 5.5 -12.0°
Sets 17:19:40 0° 349° (NNW) 2,343 6.5 -12.3°
